Location: Peterborough
(44.3091°N, 78.3197°W)
Time: 16:07:02
(UTC-04:00)

Explorer 7 - Pass Details

Date: 30 March 2023
Orbit: 477 x 653 km, 50.3° (Epoch: 04 June)

Event Time Altitude Azimuth Distance (km) Brightness Sun altitude
Rises 16:26:07 0° 241° (WSW) 2,948 11.7 32.3°
Reaches altitude 10° 16:28:29 10° 241° (WSW) 2,023 11.3 31.9°
Maximum altitude 16:33:10 90° 318° (NW) 623 7.6 31.2°
Drops below altitude 10° 16:37:43 10° 62° (ENE) 1,966 9.2 30.4°
Sets 16:39:51 0° 63° (ENE) 2,804 9.9 30.1°
